contact:dominique.lefevre@mio.osupytheas.fr, maurice.libes@osupytheas.fr, didier.mallarino@osupytheas.fr
Project:EMSO http://www.emso-fr.org/EMSO-France
Depth: 2436.0 m
Title:EMSO Ligure Ouest : Data MII capteur AQUADOPP
Date,Latitude,Longitude,X_East,Y_North,Z_Up,Amplitude_X,Amplitude_Y,Amplitude_Z,Batterie,SoundSpeed,Heading,Pitch,Roll,Pressure,TIS,Speed,Direction
, degrees North, degrees East, m.s-1, m.s-1,m.s-1, 1, 1, 1, Volt, m.s-1, degree, degree, degree, dbar, degree_C, m.s-1, degree
2023-09-20T00:04:03,42.805,6.029,-0.015,0.0,-0.024,101.0,103.0,101.0,13.4,1505.2,342.2,-0.7,1.9,2471.573,13.29,0.015,270.0
2023-09-20T00:07:03,42.805,6.029,0.003,0.025,-0.001,102.0,102.0,101.0,13.4,1505.2,349.3,-0.8,1.8,2471.536,13.29,0.025,6.8
2023-09-20T00:10:03,42.805,6.029,-0.038,0.006,-0.028,103.0,102.0,101.0,13.4,1505.2,326.5,-0.8,1.8,2471.523,13.29,0.038,279.0
2023-09-20T00:13:03,42.805,6.029,-0.023,0.012,-0.04,103.0,103.0,99.0,13.4,1505.2,336.9,-0.8,1.8,2471.55,13.29,0.025,297.6
2023-09-20T00:16:03,42.805,6.029,0.0,-0.003,-0.022,102.0,102.0,101.0,13.4,1505.2,337.8,-0.7,1.8,2471.53,13.29,0.003,180.0
2023-09-20T00:19:03,42.805,6.029,-0.033,0.011,-0.038,102.0,102.0,101.0,13.4,1505.2,333.4,-0.8,1.9,2471.545,13.29,0.034,288.4
2023-09-20T00:22:03,42.805,6.029,-0.01,0.008,-0.016,102.0,102.0,101.0,13.3,1505.2,334.2,-0.7,1.9,2471.535,13.29,0.012,308.7
2023-09-20T00:25:03,42.805,6.029,-0.033,0.022,-0.03,102.0,102.0,105.0,13.4,1505.2,341.2,-0.7,1.8,2471.496,13.29,0.039,303.7
2023-09-20T00:28:03,42.805,6.029,-0.023,0.003,-0.035,102.0,102.0,101.0,13.4,1505.2,333.0,-0.8,1.8,2471.503,13.29,0.023,277.4
2023-09-20T00:31:03,42.805,6.029,-0.008,0.028,0.0,103.0,102.0,100.0,13.3,1505.2,349.3,-0.8,1.8,2471.473,13.29,0.029,344.1
2023-09-20T00:34:03,42.805,6.029,-0.012,0.017,-0.022,102.0,101.0,101.0,13.4,1505.2,339.4,-0.8,1.8,2471.505,13.29,0.02,324.8
2023-09-20T00:37:03,42.805,6.029,-0.013,0.019,-0.005,103.0,102.0,102.0,13.4,1505.2,342.9,-0.8,1.8,2471.483,13.29,0.023,325.6
2023-09-20T00:40:03,42.805,6.029,0.0,0.024,-0.022,102.0,102.0,101.0,13.4,1505.2,353.9,-0.8,1.8,2471.511,13.29,0.024,0.0
2023-09-20T00:43:03,42.805,6.029,0.001,0.0,-0.045,103.0,102.0,101.0,13.4,1505.2,329.4,-0.8,1.8,2471.509,13.29,0.001,90.0
2023-09-20T00:46:03,42.805,6.029,-0.03,0.007,-0.016,101.0,102.0,101.0,13.3,1505.2,326.0,-0.8,1.8,2471.478,13.29,0.03,283.1
2023-09-20T00:49:03,42.805,6.029,-0.007,-0.015,-0.02,102.0,102.0,100.0,13.4,1505.2,340.8,-0.8,1.8,2471.503,13.29,0.016,205.0
2023-09-20T00:52:03,42.805,6.029,-0.018,0.024,0.008,101.0,103.0,101.0,13.4,1505.2,340.0,-0.7,1.8,2471.487,13.29,0.03,323.1
2023-09-20T00:55:03,42.805,6.029,-0.027,0.021,0.0,102.0,102.0,102.0,13.3,1505.2,344.8,-0.8,1.8,2471.471,13.29,0.034,307.9
2023-09-20T00:58:03,42.805,6.029,-0.007,0.002,-0.036,104.0,101.0,100.0,13.3,1505.2,330.3,-0.8,1.8,2471.481,13.29,0.007,285.9
2023-09-20T01:04:03,42.805,6.029,-0.026,-0.031,-0.051,104.0,103.0,102.0,13.3,1505.2,347.0,-0.8,1.8,2471.528,13.29,0.04,220.0
2023-09-20T01:07:03,42.805,6.029,-0.012,0.032,-0.005,100.0,102.0,100.0,13.4,1505.2,329.1,-0.7,1.8,2471.509,13.29,0.034,339.4
2023-09-20T01:10:03,42.805,6.029,-0.022,0.013,-0.003,102.0,102.0,101.0,13.4,1505.2,337.3,-0.8,1.8,2471.498,13.29,0.025,300.6
2023-09-20T01:13:03,42.805,6.029,-0.027,0.017,-0.027,102.0,100.0,102.0,13.3,1505.2,331.2,-0.8,1.8,2471.463,13.29,0.031,302.2
2023-09-20T01:16:03,42.805,6.029,-0.014,-0.008,-0.04,103.0,102.0,100.0,13.4,1505.2,338.8,-0.8,1.8,2471.492,13.29,0.016,240.3
2023-09-20T01:19:03,42.805,6.029,-0.023,0.042,0.004,103.0,101.0,102.0,13.4,1505.2,342.9,-0.8,1.8,2471.445,13.29,0.047,331.3
2023-09-20T01:22:03,42.805,6.029,-0.014,0.012,-0.044,102.0,101.0,101.0,13.4,1505.2,339.5,-0.8,1.8,2471.472,13.29,0.018,310.6
2023-09-20T01:25:03,42.805,6.029,-0.024,0.016,-0.001,101.0,102.0,100.0,13.4,1505.2,352.0,-0.7,1.8,2471.489,13.29,0.028,303.7
2023-09-20T01:28:03,42.805,6.029,-0.005,0.022,0.005,102.0,102.0,101.0,13.3,1505.2,333.9,-0.8,1.8,2471.468,13.29,0.022,347.2
2023-09-20T01:31:03,42.805,6.029,-0.006,-0.001,-0.046,103.0,102.0,101.0,13.4,1505.2,324.7,-0.8,1.8,2471.456,13.29,0.006,260.5
2023-09-20T01:34:03,42.805,6.029,-0.049,0.039,-0.01,103.0,100.0,101.0,13.3,1505.2,327.0,-0.7,1.8,2471.417,13.29,0.062,308.5
2023-09-20T01:37:03,42.805,6.029,-0.018,0.029,-0.038,100.0,102.0,101.0,13.4,1505.2,336.2,-0.8,1.8,2471.491,13.29,0.034,328.2
2023-09-20T01:40:03,42.805,6.029,-0.019,0.005,-0.06,102.0,101.0,101.0,13.4,1505.2,337.3,-0.8,1.8,2471.433,13.29,0.019,284.7
2023-09-20T01:43:03,42.805,6.029,0.019,0.025,0.017,101.0,102.0,101.0,13.4,1505.2,349.7,-0.8,1.8,2471.457,13.29,0.031,37.2
2023-09-20T01:46:03,42.805,6.029,0.009,-0.012,-0.022,101.0,101.0,101.0,13.3,1505.2,347.0,-0.8,1.8,2471.447,13.29,0.015,143.1
2023-09-20T01:49:03,42.805,6.029,-0.01,0.034,-0.01,101.0,101.0,102.0,13.4,1505.2,333.9,-0.8,1.8,2471.446,13.29,0.035,343.6
2023-09-20T01:52:03,42.805,6.029,-0.019,0.029,-0.032,101.0,101.0,101.0,13.4,1505.2,345.2,-0.8,1.8,2471.44,13.29,0.034,326.8
2023-09-20T01:55:03,42.805,6.029,-0.021,-0.001,-0.029,104.0,103.0,99.0,13.4,1505.2,333.4,-0.8,1.8,2471.455,13.29,0.021,267.3
2023-09-20T01:58:03,42.805,6.029,-0.001,0.011,-0.018,102.0,102.0,100.0,13.3,1505.2,351.0,-0.8,1.8,2471.459,13.29,0.011,354.8
2023-09-20T02:04:03,42.805,6.029,-0.025,0.005,-0.021,102.0,101.0,101.0,13.4,1505.2,328.7,-0.8,1.8,2471.501,13.29,0.025,281.3
2023-09-20T02:07:03,42.805,6.029,0.016,0.006,0.013,102.0,101.0,101.0,13.4,1505.2,341.2,-0.8,1.8,2471.518,13.29,0.017,69.4
2023-09-20T02:10:03,42.805,6.029,-0.011,0.021,0.007,103.0,102.0,101.0,13.3,1505.2,338.2,-0.8,1.8,2471.451,13.29,0.023,332.4
2023-09-20T02:13:03,42.805,6.029,-0.036,0.009,-0.022,101.0,101.0,100.0,13.4,1505.2,331.1,-0.8,1.8,2471.465,13.29,0.037,284.0
2023-09-20T02:16:03,42.805,6.029,-0.014,-0.006,-0.026,102.0,102.0,101.0,13.4,1505.2,349.6,-0.8,1.8,2471.433,13.29,0.015,246.8
2023-09-20T02:19:03,42.805,6.029,-0.016,0.048,-0.025,102.0,101.0,100.0,13.4,1505.2,356.7,-0.7,1.8,2471.432,13.29,0.05,341.6
2023-09-20T02:22:03,42.805,6.029,-0.017,0.006,0.0,102.0,101.0,100.0,13.3,1505.2,325.5,-0.8,1.8,2471.47,13.29,0.018,289.4
2023-09-20T02:25:03,42.805,6.029,-0.021,0.007,-0.027,100.0,100.0,102.0,13.4,1505.2,331.5,-0.8,1.8,2471.406,13.29,0.022,288.4
2023-09-20T02:28:03,42.805,6.029,-0.022,0.019,-0.011,103.0,101.0,100.0,13.3,1505.2,334.4,-0.7,1.8,2471.444,13.29,0.029,310.8
2023-09-20T02:31:03,42.805,6.029,-0.027,0.032,0.003,101.0,102.0,100.0,13.3,1505.2,330.3,-0.8,1.8,2471.484,13.29,0.041,319.8
2023-09-20T02:34:03,42.805,6.029,-0.024,0.007,-0.021,102.0,101.0,100.0,13.4,1505.2,337.1,-0.7,1.8,2471.419,13.29,0.025,286.3
2023-09-20T02:37:03,42.805,6.029,-0.006,0.027,-0.001,103.0,102.0,103.0,13.4,1505.2,355.8,-0.8,1.8,2471.427,13.29,0.027,347.5
2023-09-20T02:40:03,42.805,6.029,-0.029,0.004,-0.051,102.0,102.0,100.0,13.4,1505.2,331.2,-0.8,1.9,2471.443,13.29,0.029,277.8
2023-09-20T02:43:03,42.805,6.029,-0.019,0.037,-0.02,102.0,102.0,101.0,13.3,1505.2,345.2,-0.8,1.9,2471.416,13.29,0.041,332.8
2023-09-20T02:46:03,42.805,6.029,-0.018,0.024,-0.017,102.0,101.0,101.0,13.3,1505.2,347.6,-0.7,1.8,2471.408,13.29,0.03,323.1
2023-09-20T02:49:03,42.805,6.029,-0.018,0.001,-0.028,102.0,102.0,101.0,13.4,1505.2,344.2,-0.7,1.8,2471.399,13.29,0.018,273.2
2023-09-20T02:52:03,42.805,6.029,-0.015,0.046,-0.014,102.0,101.0,101.0,13.3,1505.2,351.0,-0.7,1.8,2471.442,13.29,0.048,341.9
2023-09-20T02:55:03,42.805,6.029,-0.007,-0.008,0.001,102.0,102.0,101.0,13.3,1505.2,354.5,-0.8,1.8,2471.431,13.29,0.01,221.2
2023-09-20T02:58:03,42.805,6.029,-0.028,0.022,-0.018,102.0,101.0,101.0,13.3,1505.2,327.0,-0.8,1.8,2471.422,13.29,0.035,308.2
2023-09-20T03:04:03,42.805,6.029,-0.001,-0.011,-0.032,101.0,102.0,100.0,13.4,1505.2,334.3,-0.8,1.8,2471.467,13.29,0.011,185.2
2023-09-20T03:07:03,42.805,6.029,-0.023,0.007,0.014,101.0,101.0,101.0,13.4,1505.2,341.9,-0.8,1.8,2471.445,13.29,0.024,286.9
2023-09-20T03:10:03,42.805,6.029,-0.013,0.042,0.011,102.0,100.0,100.0,13.4,1505.2,340.1,-0.8,1.8,2471.458,13.29,0.043,342.8
2023-09-20T03:13:03,42.805,6.029,-0.028,0.024,-0.006,102.0,102.0,101.0,13.4,1505.2,332.6,-0.8,1.8,2471.471,13.29,0.036,310.6
2023-09-20T03:16:03,42.805,6.029,-0.015,0.018,-0.012,103.0,102.0,101.0,13.4,1505.2,326.8,-0.7,1.8,2471.449,13.29,0.023,320.2
2023-09-20T03:19:03,42.805,6.029,-0.01,0.011,-0.014,102.0,103.0,101.0,13.4,1505.2,335.3,-0.8,1.8,2471.461,13.29,0.014,317.7
2023-09-20T03:22:03,42.805,6.029,-0.042,0.024,-0.021,101.0,102.0,101.0,13.4,1505.2,338.0,-0.8,1.8,2471.413,13.29,0.048,299.7
2023-09-20T03:25:03,42.805,6.029,0.001,0.011,-0.003,102.0,101.0,100.0,13.3,1505.2,354.9,-0.7,1.8,2471.408,13.29,0.011,5.2
2023-09-20T03:28:03,42.805,6.029,-0.011,0.032,0.011,101.0,101.0,101.0,13.3,1505.2,353.0,-0.8,1.8,2471.469,13.29,0.033,341.0
2023-09-20T03:31:03,42.805,6.029,-0.023,0.013,0.003,102.0,102.0,99.0,13.4,1505.2,326.7,-0.8,1.8,2471.416,13.29,0.026,299.5
2023-09-20T03:34:03,42.805,6.029,-0.014,0.033,-0.01,102.0,101.0,101.0,13.3,1505.2,328.2,-0.8,1.8,2471.394,13.29,0.035,337.0
2023-09-20T03:37:03,42.805,6.029,-0.01,0.027,-0.01,102.0,101.0,100.0,13.4,1505.2,345.4,-0.8,1.8,2471.403,13.29,0.028,339.7
2023-09-20T03:40:03,42.805,6.029,-0.011,0.019,0.0,102.0,101.0,100.0,13.4,1505.2,337.4,-0.8,1.8,2471.429,13.29,0.021,329.9
2023-09-20T03:43:03,42.805,6.029,-0.018,0.026,-0.011,101.0,100.0,102.0,13.4,1505.2,332.9,-0.7,1.8,2471.427,13.29,0.031,325.3
2023-09-20T03:46:03,42.805,6.029,-0.014,0.032,0.013,101.0,101.0,101.0,13.4,1505.2,340.0,-0.8,1.8,2471.415,13.29,0.034,336.4
2023-09-20T03:49:03,42.805,6.029,-0.016,0.032,0.005,101.0,102.0,101.0,13.3,1505.2,332.5,-0.8,1.8,2471.433,13.29,0.035,333.4
2023-09-20T03:52:03,42.805,6.029,-0.017,0.042,-0.026,102.0,101.0,102.0,13.4,1505.2,347.3,-0.8,1.8,2471.423,13.29,0.045,338.0
2023-09-20T03:55:03,42.805,6.029,-0.021,0.028,-0.014,102.0,100.0,101.0,13.4,1505.2,337.8,-0.7,1.8,2471.408,13.29,0.035,323.1
2023-09-20T03:58:03,42.805,6.029,-0.015,0.042,-0.006,101.0,101.0,101.0,13.3,1505.2,352.2,-0.8,1.8,2471.421,13.29,0.044,340.4
2023-09-20T04:04:03,42.805,6.029,0.0,0.01,-0.022,102.0,101.0,100.0,13.4,1505.2,338.4,-0.8,1.8,2471.443,13.29,0.01,0.0
2023-09-20T04:07:03,42.805,6.029,-0.031,0.02,-0.027,102.0,102.0,100.0,13.3,1505.2,336.8,-0.8,1.8,2471.422,13.29,0.036,302.8
2023-09-20T04:10:03,42.805,6.029,-0.011,0.031,-0.06,101.0,103.0,100.0,13.3,1505.2,348.4,-0.8,1.8,2471.452,13.29,0.032,340.5
2023-09-20T04:13:03,42.805,6.029,-0.018,0.017,-0.018,101.0,102.0,99.0,13.3,1505.2,354.0,-0.8,1.8,2471.442,13.29,0.024,313.4
2023-09-20T04:16:03,42.805,6.029,-0.031,0.021,-0.013,101.0,100.0,101.0,13.4,1505.2,336.3,-0.8,1.8,2471.463,13.29,0.037,304.1
2023-09-20T04:19:03,42.805,6.029,-0.007,0.024,-0.027,103.0,102.0,100.0,13.3,1505.2,355.0,-0.8,1.8,2471.402,13.29,0.025,343.7
2023-09-20T04:22:03,42.805,6.029,-0.016,0.018,-0.018,102.0,101.0,101.0,13.4,1505.2,330.6,-0.8,1.8,2471.426,13.29,0.024,318.4
2023-09-20T04:25:03,42.805,6.029,0.002,0.008,-0.041,101.0,101.0,101.0,13.4,1505.2,338.4,-0.8,1.8,2471.438,13.29,0.008,14.0
2023-09-20T04:28:03,42.805,6.029,0.002,0.031,0.014,101.0,101.0,100.0,13.3,1505.2,336.2,-0.7,1.8,2471.388,13.29,0.031,3.7
2023-09-20T04:31:03,42.805,6.029,-0.002,0.022,-0.011,100.0,103.0,101.0,13.4,1505.2,337.3,-0.8,1.8,2471.407,13.29,0.022,354.8
2023-09-20T04:34:03,42.805,6.029,-0.028,-0.004,-0.043,101.0,101.0,101.0,13.3,1505.2,335.9,-0.8,1.8,2471.439,13.29,0.028,261.9
2023-09-20T04:37:03,42.805,6.029,-0.022,0.025,0.004,101.0,101.0,100.0,13.4,1505.2,345.4,-0.8,1.8,2471.435,13.29,0.033,318.7
2023-09-20T04:40:03,42.805,6.029,-0.004,0.012,-0.016,102.0,101.0,101.0,13.3,1505.2,345.4,-0.8,1.9,2471.432,13.29,0.012,341.6
2023-09-20T04:43:03,42.805,6.029,-0.024,0.008,-0.042,102.0,101.0,101.0,13.3,1505.2,344.3,-0.8,1.8,2471.427,13.29,0.025,288.4
2023-09-20T04:46:03,42.805,6.029,-0.034,0.013,-0.047,101.0,101.0,100.0,13.4,1505.2,332.9,-0.7,1.8,2471.398,13.29,0.036,290.9
2023-09-20T04:49:03,42.805,6.029,-0.011,0.043,0.001,103.0,101.0,100.0,13.3,1505.2,341.9,-0.7,1.8,2471.43,13.29,0.044,345.7
2023-09-20T04:52:03,42.805,6.029,-0.03,0.026,-0.026,100.0,102.0,101.0,13.4,1505.2,345.9,-0.7,1.8,2471.412,13.29,0.039,310.9
2023-09-20T04:55:03,42.805,6.029,-0.042,0.018,-0.014,102.0,102.0,100.0,13.3,1505.2,328.0,-0.8,1.8,2471.421,13.29,0.045,293.2
2023-09-20T04:58:03,42.805,6.029,-0.008,0.031,0.0,101.0,102.0,100.0,13.4,1505.2,334.3,-0.8,1.8,2471.462,13.29,0.032,345.5
2023-09-20T05:04:03,42.805,6.029,0.004,0.009,0.005,101.0,102.0,100.0,13.4,1505.2,336.6,-0.8,1.8,2471.449,13.29,0.009,24.0
2023-09-20T05:07:03,42.805,6.029,-0.022,0.035,-0.012,101.0,102.0,99.0,13.3,1505.2,349.8,-0.7,1.8,2471.44,13.29,0.041,327.8
2023-09-20T05:10:03,42.805,6.029,-0.002,0.028,-0.013,102.0,103.0,100.0,13.4,1505.2,353.2,-0.8,1.8,2471.455,13.29,0.028,355.9
2023-09-20T05:13:03,42.805,6.029,-0.006,0.007,0.002,101.0,102.0,100.0,13.4,1505.2,345.7,-0.8,1.8,2471.455,13.29,0.009,319.4
2023-09-20T05:16:03,42.805,6.029,0.011,-0.01,-0.057,103.0,102.0,100.0,13.4,1505.2,331.8,-0.8,1.8,2471.429,13.29,0.014,132.3
2023-09-20T05:19:03,42.805,6.029,-0.006,0.037,0.019,102.0,101.0,101.0,13.3,1505.2,335.9,-0.7,1.8,2471.469,13.29,0.037,350.8
2023-09-20T05:22:03,42.805,6.029,-0.032,0.01,-0.046,103.0,100.0,100.0,13.3,1505.2,333.8,-0.8,1.9,2471.472,13.29,0.033,287.4
2023-09-20T05:25:03,42.805,6.029,0.0,0.012,-0.021,99.0,101.0,101.0,13.3,1505.2,352.4,-0.7,1.8,2471.44,13.29,0.012,0.0
2023-09-20T05:28:03,42.805,6.029,-0.01,0.006,0.001,102.0,101.0,100.0,13.4,1505.2,327.9,-0.8,1.8,2471.459,13.29,0.011,301.0
2023-09-20T05:31:03,42.805,6.029,-0.011,0.036,-0.015,102.0,101.0,100.0,13.4,1505.2,346.9,-0.8,1.8,2471.438,13.29,0.037,343.0
2023-09-20T05:34:03,42.805,6.029,-0.008,0.013,-0.031,102.0,101.0,101.0,13.4,1505.2,345.2,-0.8,1.8,2471.447,13.29,0.015,328.4
2023-09-20T05:37:03,42.805,6.029,0.021,0.02,0.004,101.0,101.0,100.0,13.3,1505.2,351.7,-0.8,1.8,2471.445,13.29,0.028,46.4
2023-09-20T05:40:03,42.805,6.029,-0.01,0.025,-0.022,102.0,101.0,101.0,13.4,1505.2,337.2,-0.7,1.8,2471.423,13.29,0.026,338.2
2023-09-20T05:43:03,42.805,6.029,0.022,-0.001,0.003,101.0,102.0,100.0,13.4,1505.2,355.9,-0.8,1.8,2471.489,13.29,0.022,92.6
2023-09-20T05:46:03,42.805,6.029,-0.008,0.004,-0.03,102.0,101.0,101.0,13.4,1505.2,324.4,-0.7,1.8,2471.434,13.29,0.008,296.6
2023-09-20T05:49:03,42.805,6.029,-0.019,0.019,-0.023,100.0,102.0,100.0,13.3,1505.2,331.5,-0.8,1.8,2471.458,13.29,0.026,315.0
2023-09-20T05:52:03,42.805,6.029,-0.009,0.023,-0.022,102.0,99.0,101.0,13.4,1505.2,345.9,-0.8,1.8,2471.455,13.29,0.024,338.6
2023-09-20T05:55:03,42.805,6.029,0.001,0.03,-0.002,101.0,101.0,101.0,13.4,1505.2,347.8,-0.7,1.8,2471.43,13.29,0.03,1.9
2023-09-20T05:58:03,42.805,6.029,-0.027,0.022,-0.027,102.0,102.0,99.0,13.4,1505.2,340.1,-0.8,1.8,2471.461,13.29,0.034,309.2
2023-09-20T06:04:03,42.805,6.029,-0.039,0.051,-0.009,101.0,101.0,101.0,13.3,1505.2,338.0,-0.8,1.8,2471.491,13.29,0.064,322.6
2023-09-20T06:07:03,42.805,6.029,0.0,0.037,-0.018,101.0,101.0,101.0,13.4,1505.2,349.6,-0.8,1.8,2471.486,13.29,0.037,0.0
2023-09-20T06:10:03,42.805,6.029,0.011,0.009,-0.024,101.0,101.0,100.0,13.4,1505.2,327.3,-0.8,1.8,2471.479,13.29,0.014,50.7
2023-09-20T06:13:03,42.805,6.029,-0.02,0.011,-0.032,101.0,102.0,101.0,13.4,1505.2,328.7,-0.8,1.8,2471.501,13.29,0.022,298.8
2023-09-20T06:16:03,42.805,6.029,-0.02,0.026,-0.02,101.0,102.0,101.0,13.4,1505.2,338.2,-0.8,1.8,2471.454,13.29,0.032,322.4
2023-09-20T06:19:03,42.805,6.029,-0.009,-0.002,-0.048,101.0,101.0,101.0,13.3,1505.2,324.2,-0.8,1.8,2471.453,13.29,0.009,257.5
2023-09-20T06:22:03,42.805,6.029,-0.019,0.041,-0.012,102.0,101.0,101.0,13.3,1505.2,325.7,-0.8,1.8,2471.453,13.29,0.045,335.1
2023-09-20T06:25:03,42.805,6.029,-0.045,0.04,-0.073,101.0,103.0,100.0,13.3,1505.2,348.6,-0.8,1.8,2471.497,13.29,0.06,311.6
2023-09-20T06:28:03,42.805,6.029,-0.017,0.052,-0.013,102.0,102.0,100.0,13.4,1505.2,348.6,-0.8,1.8,2471.486,13.29,0.054,341.9
2023-09-20T06:31:03,42.805,6.029,-0.024,0.038,-0.026,102.0,101.0,101.0,13.3,1505.2,345.1,-0.8,1.8,2471.474,13.29,0.044,327.7
2023-09-20T06:34:03,42.805,6.029,-0.016,0.032,0.0,102.0,101.0,100.0,13.3,1505.2,354.4,-0.7,1.8,2471.464,13.29,0.035,333.4
2023-09-20T06:37:03,42.805,6.029,-0.016,0.041,-0.005,100.0,102.0,100.0,13.4,1505.2,330.2,-0.8,1.8,2471.496,13.29,0.044,338.7
2023-09-20T06:40:03,42.805,6.029,0.007,0.027,0.022,102.0,103.0,100.0,13.4,1505.2,336.2,-0.8,1.8,2471.488,13.29,0.027,14.5
2023-09-20T06:43:03,42.805,6.029,-0.01,0.015,-0.035,100.0,101.0,101.0,13.4,1505.2,329.4,-0.8,1.8,2471.443,13.29,0.018,326.3
2023-09-20T06:46:03,42.805,6.029,-0.024,0.011,-0.042,103.0,100.0,101.0,13.4,1505.2,331.1,-0.8,1.8,2471.452,13.29,0.026,294.6
2023-09-20T06:49:03,42.805,6.029,-0.064,0.003,-0.043,102.0,101.0,101.0,13.4,1505.2,329.1,-0.7,1.8,2471.498,13.29,0.064,272.7
2023-09-20T06:52:03,42.805,6.029,-0.032,0.014,0.0,102.0,102.0,100.0,13.3,1505.2,325.3,-0.8,1.8,2471.489,13.29,0.034,293.6
2023-09-20T06:55:03,42.805,6.029,-0.013,0.019,-0.018,102.0,103.0,99.0,13.3,1505.2,329.2,-0.7,1.8,2471.501,13.29,0.023,325.6
2023-09-20T06:58:03,42.805,6.029,0.019,0.011,0.031,101.0,101.0,101.0,13.4,1505.2,342.3,-0.8,1.8,2471.476,13.29,0.021,59.9
2023-09-20T07:04:03,42.805,6.029,-0.015,-0.002,-0.061,102.0,101.0,101.0,13.4,1505.2,332.9,-0.8,1.8,2471.524,13.29,0.015,262.4
2023-09-20T07:07:03,42.805,6.029,-0.022,0.014,-0.021,102.0,102.0,100.0,13.4,1505.2,351.8,-0.8,1.8,2471.514,13.29,0.026,302.5
2023-09-20T07:10:03,42.805,6.029,-0.016,0.024,-0.01,102.0,102.0,101.0,13.3,1505.2,344.8,-0.8,1.8,2471.545,13.29,0.028,326.3
2023-09-20T07:13:03,42.805,6.029,0.016,0.019,-0.008,101.0,103.0,101.0,13.4,1505.2,356.8,-0.7,1.8,2471.564,13.29,0.024,40.1
2023-09-20T07:16:03,42.805,6.029,-0.014,-0.007,-0.046,102.0,102.0,100.0,13.4,1505.2,343.4,-0.8,1.8,2471.537,13.29,0.015,243.4
2023-09-20T07:19:03,42.805,6.029,-0.003,0.016,0.005,102.0,101.0,100.0,13.4,1505.2,334.8,-0.8,1.8,2471.481,13.29,0.016,349.4
2023-09-20T07:22:03,42.805,6.029,0.006,-0.011,0.001,104.0,101.0,101.0,13.4,1505.2,341.5,-0.8,1.8,2471.552,13.29,0.012,151.4
2023-09-20T07:25:03,42.805,6.029,-0.023,0.037,-0.009,102.0,101.0,100.0,13.3,1505.2,347.1,-0.8,1.8,2471.519,13.29,0.043,328.1
2023-09-20T07:28:03,42.805,6.029,-0.007,0.045,0.007,102.0,101.0,100.0,13.3,1505.2,349.7,-0.8,1.8,2471.52,13.29,0.045,351.2
2023-09-20T07:31:03,42.805,6.029,-0.017,0.05,0.029,101.0,100.0,101.0,13.4,1505.2,341.5,-0.8,1.8,2471.498,13.29,0.052,341.2
2023-09-20T07:34:03,42.805,6.029,-0.015,0.009,0.012,101.0,100.0,102.0,13.3,1505.2,331.4,-0.8,1.8,2471.491,13.29,0.017,301.0
2023-09-20T07:37:03,42.805,6.029,-0.007,0.008,-0.035,101.0,102.0,101.0,13.4,1505.2,333.8,-0.8,1.8,2471.529,13.29,0.01,318.8
2023-09-20T07:40:03,42.805,6.029,-0.02,-0.004,-0.003,101.0,102.0,100.0,13.4,1505.2,343.2,-0.8,1.8,2471.499,13.29,0.02,258.7
2023-09-20T07:43:03,42.805,6.029,-0.005,0.015,-0.014,101.0,102.0,100.0,13.4,1505.2,343.0,-0.7,1.8,2471.545,13.29,0.015,341.6
2023-09-20T07:46:03,42.805,6.029,-0.018,-0.002,-0.017,101.0,102.0,100.0,13.4,1505.2,345.9,-0.8,1.8,2471.509,13.29,0.018,263.7
2023-09-20T07:49:03,42.805,6.029,-0.033,0.018,-0.029,101.0,102.0,101.0,13.4,1505.2,341.9,-0.8,1.8,2471.557,13.29,0.037,298.6
2023-09-20T07:52:03,42.805,6.029,-0.025,0.012,-0.035,102.0,101.0,101.0,13.3,1505.2,332.9,-0.7,1.8,2471.553,13.29,0.027,295.6
2023-09-20T07:55:03,42.805,6.029,-0.011,0.053,-0.009,101.0,101.0,100.0,13.3,1505.2,353.1,-0.7,1.8,2471.545,13.29,0.054,348.3
2023-09-20T07:58:03,42.805,6.029,-0.006,0.015,-0.003,102.0,102.0,101.0,13.4,1505.2,330.6,-0.7,1.8,2471.54,13.29,0.016,338.2
2023-09-20T08:04:03,42.805,6.029,-0.01,0.009,-0.027,101.0,102.0,100.0,13.3,1505.2,353.2,-0.8,1.9,2471.594,13.29,0.013,312.0
2023-09-20T08:07:03,42.805,6.029,-0.002,0.042,0.017,102.0,101.0,100.0,13.3,1505.2,353.1,-0.7,1.8,2471.54,13.29,0.042,357.3
2023-09-20T08:10:03,42.805,6.029,0.017,0.007,0.02,102.0,101.0,100.0,13.4,1505.2,350.9,-0.8,1.8,2471.566,13.29,0.018,67.6
2023-09-20T08:13:03,42.805,6.029,-0.001,0.011,0.016,103.0,102.0,101.0,13.4,1505.2,355.6,-0.7,1.8,2471.559,13.29,0.011,354.8
2023-09-20T08:16:03,42.805,6.029,-0.015,0.031,-0.029,101.0,101.0,100.0,13.4,1505.2,346.1,-0.8,1.8,2471.603,13.29,0.034,334.2
2023-09-20T08:19:03,42.805,6.029,-0.027,0.031,-0.021,101.0,102.0,101.0,13.4,1505.2,327.4,-0.8,1.8,2471.555,13.29,0.041,318.9
2023-09-20T08:22:03,42.805,6.029,-0.015,0.008,-0.035,100.0,101.0,101.0,13.4,1505.2,342.8,-0.8,1.8,2471.58,13.29,0.017,298.1
2023-09-20T08:25:03,42.805,6.029,-0.014,0.025,-0.036,101.0,101.0,101.0,13.4,1505.2,340.1,-0.8,1.8,2471.544,13.29,0.028,330.7
2023-09-20T08:28:03,42.805,6.029,-0.015,0.013,-0.002,101.0,102.0,100.0,13.4,1505.2,345.4,-0.8,1.8,2471.559,13.29,0.019,310.9
2023-09-20T08:31:03,42.805,6.029,-0.006,0.02,0.0,101.0,102.0,100.0,13.3,1505.2,334.3,-0.8,1.8,2471.578,13.29,0.02,343.3
2023-09-20T08:34:03,42.805,6.029,-0.004,0.0,-0.057,102.0,102.0,100.0,13.3,1505.2,330.6,-0.8,1.8,2471.561,13.29,0.004,270.0
2023-09-20T08:37:03,42.805,6.029,-0.003,0.031,-0.002,102.0,102.0,99.0,13.3,1505.2,356.8,-0.8,1.8,2471.535,13.29,0.031,354.5
2023-09-20T08:40:03,42.805,6.029,0.004,0.007,-0.026,101.0,101.0,101.0,13.4,1505.2,333.9,-0.8,1.8,2471.602,13.29,0.008,29.7
2023-09-20T08:43:03,42.805,6.029,-0.003,0.017,-0.03,101.0,101.0,101.0,13.3,1505.2,340.1,-0.8,1.8,2471.575,13.29,0.017,350.0
2023-09-20T08:46:03,42.805,6.029,0.002,0.028,-0.002,101.0,102.0,100.0,13.3,1505.2,355.9,-0.8,1.8,2471.561,13.29,0.028,4.1
2023-09-20T08:49:03,42.805,6.029,-0.017,0.017,-0.003,101.0,101.0,101.0,13.4,1505.2,346.2,-0.8,1.8,2471.553,13.29,0.024,315.0
2023-09-20T08:52:03,42.805,6.029,-0.012,0.02,0.008,102.0,100.0,101.0,13.4,1505.2,343.7,-0.7,1.8,2471.559,13.29,0.023,329.0
2023-09-20T08:55:03,42.805,6.029,0.009,0.025,0.023,101.0,102.0,101.0,13.4,1505.2,355.6,-0.8,1.8,2471.561,13.29,0.026,19.8
2023-09-20T08:58:03,42.805,6.029,-0.017,0.013,-0.045,102.0,101.0,101.0,13.3,1505.2,335.7,-0.8,1.8,2471.564,13.29,0.021,307.4
2023-09-20T09:04:03,42.805,6.029,-0.022,0.004,-0.049,101.0,101.0,101.0,13.3,1505.2,342.6,-0.8,1.8,2471.605,13.29,0.022,280.3
2023-09-20T09:07:03,42.805,6.029,-0.024,0.054,0.027,104.0,101.0,101.0,13.4,1505.2,326.0,-0.8,1.8,2471.613,13.29,0.059,336.0
2023-09-20T09:10:03,42.805,6.029,-0.001,0.022,-0.029,103.0,102.0,100.0,13.3,1505.2,324.6,-0.8,1.8,2471.626,13.29,0.022,357.4
2023-09-20T09:13:03,42.805,6.029,0.0,0.02,0.001,101.0,102.0,100.0,13.3,1505.2,329.1,-0.7,1.8,2471.622,13.29,0.02,0.0
2023-09-20T09:16:03,42.805,6.029,-0.008,-0.001,-0.059,101.0,101.0,101.0,13.4,1505.2,340.7,-0.8,1.8,2471.597,13.29,0.008,262.9
2023-09-20T09:19:03,42.805,6.029,0.0,0.005,-0.017,102.0,101.0,100.0,13.4,1505.2,346.2,-0.7,1.8,2471.609,13.29,0.005,0.0
2023-09-20T09:22:03,42.805,6.029,0.002,0.009,-0.029,102.0,100.0,101.0,13.4,1505.2,354.4,-0.7,1.8,2471.603,13.29,0.009,12.5
2023-09-20T09:25:03,42.805,6.029,-0.021,0.018,-0.03,103.0,101.0,101.0,13.3,1505.2,341.5,-0.8,1.8,2471.61,13.29,0.027,310.6
2023-09-20T09:28:03,42.805,6.029,0.001,0.021,-0.027,101.0,103.0,100.0,13.4,1505.2,342.9,-0.8,1.8,2471.628,13.29,0.021,2.7
2023-09-20T09:31:03,42.805,6.029,-0.001,0.002,-0.022,102.0,103.0,101.0,13.4,1505.2,348.2,-0.8,1.8,2471.583,13.29,0.002,333.4
2023-09-20T09:34:03,42.805,6.029,-0.012,0.006,-0.04,103.0,102.0,100.0,13.4,1505.2,334.4,-0.8,1.8,2471.601,13.29,0.013,296.6
2023-09-20T09:37:03,42.805,6.029,-0.039,0.04,-0.013,100.0,102.0,100.0,13.4,1505.2,346.6,-0.8,1.8,2471.556,13.29,0.055,315.7
2023-09-20T09:40:03,42.805,6.029,-0.042,0.043,-0.04,101.0,101.0,101.0,13.4,1505.2,339.7,-0.7,1.8,2471.592,13.29,0.06,315.7
2023-09-20T09:43:03,42.805,6.029,0.001,0.02,0.009,102.0,102.0,100.0,13.4,1505.2,348.6,-0.7,1.8,2471.578,13.29,0.02,2.9
2023-09-20T09:46:03,42.805,6.029,0.012,0.017,0.01,102.0,102.0,101.0,13.3,1505.2,336.8,-0.8,1.8,2471.602,13.29,0.02,35.2
2023-09-20T09:49:03,42.805,6.029,0.008,0.001,-0.004,100.0,103.0,100.0,13.3,1505.2,341.8,-0.8,1.8,2471.596,13.29,0.008,82.9
2023-09-20T09:52:03,42.805,6.029,-0.022,0.002,-0.035,102.0,102.0,100.0,13.4,1505.2,334.7,-0.7,1.8,2471.59,13.29,0.022,275.2
2023-09-20T09:55:03,42.805,6.029,-0.016,0.028,-0.015,101.0,103.0,100.0,13.4,1505.2,339.8,-0.8,1.8,2471.602,13.29,0.032,330.3